GFSCGP_250_spd_114.txt.gz
Wind_Speed
45 49 54 62 61 61 59 57 51 38 28 22 19 21 25 23 27 34 38 46 53 64 76 83 85 88 92 95 96 92 88 78 73 64 62 62 58 57 51 49 49 50 49 47
46 49 53 59 59 57 56 57 58 46 31 25 21 18 19 24 29 29 37 43 50 57 68 80 86 85 85 93 92 93 87 77 68 63 61 57 57 56 52 51 52 52 49 50
45 48 52 59 61 58 58 58 56 55 44 32 22 18 16 19 21 28 34 41 47 54 61 73 82 85 83 87 91 90 84 74 70 61 56 55 49 52 53 52 47 45 44 49
44 47 52 57 62 61 60 58 57 54 50 40 30 23 25 25 26 23 29 36 42 51 56 67 75 82 84 83 87 87 83 77 70 64 61 59 59 52 53 53 48 53 50 49
42 47 51 56 62 61 61 60 58 60 58 49 38 30 31 30 25 24 19 29 36 43 51 57 70 75 80 81 81 81 72 61 65 58 61 58 56 52 49 47 50 48 40 44
42 45 50 55 59 62 64 62 62 60 58 55 39 32 32 31 28 23 17 17 25 33 44 49 60 69 73 78 78 76 72 64 46 58 58 57 58 56 53 50 44 43 48 50
40 44 48 52 58 63 67 67 62 61 59 59 51 39 27 31 26 22 16 8 17 27 37 46 49 60 67 71 75 73 74 64 56 57 58 58 57 55 49 50 50 49 54 52
38 42 46 49 54 58 64 67 66 64 63 61 59 49 40 38 29 23 13 2 15 23 30 39 40 48 58 64 68 69 67 70 59 58 60 59 60 60 62 54 51 52 51 63
35 41 43 46 48 56 61 66 71 69 63 62 61 57 44 36 33 30 18 4 12 21 26 34 39 39 48 57 62 65 63 70 61 61 64 64 62 68 72 69 67 64 61 60
33 37 41 44 46 50 57 62 67 69 68 64 62 61 55 42 39 34 23 13 4 14 21 30 34 33 37 50 58 59 60 73 65 62 66 67 71 72 69 74 77 80 82 78
32 34 38 43 45 47 52 58 62 68 68 66 62 61 58 49 37 34 29 20 8 11 21 29 31 29 38 41 51 57 61 74 68 68 69 70 68 67 68 68 73 76 77 78
33 34 35 40 43 45 47 53 57 64 67 67 66 59 57 53 43 30 29 23 16 3 14 26 27 28 37 37 42 52 59 76 76 69 68 69 63 62 69 74 75 75 76 78
33 32 34 36 40 43 43 48 53 58 62 67 65 64 57 53 49 38 24 20 14 8 2 15 24 30 38 38 36 43 55 65 79 78 76 72 73 69 71 70 71 71 73 76
31 33 34 34 36 39 43 44 49 53 57 61 64 64 61 53 49 44 33 20 16 8 3 12 25 34 41 44 40 39 49 59 67 77 80 79 79 79 79 78 74 70 72 77
31 33 32 33 34 36 39 41 45 49 53 56 60 62 62 58 50 45 41 31 17 11 6 12 25 36 47 52 49 38 45 53 62 63 67 76 79 83 85 82 85 81 77 80
31 34 30 30 32 32 36 38 42 45 50 52 55 57 60 61 56 47 41 36 30 14 6 8 20 30 47 56 58 55 48 50 58 62 69 73 75 77 81 89 95 92 91 89
30 34 29 28 28 30 34 37 39 42 45 49 50 52 56 59 57 51 44 37 31 27 20 4 10 24 39 45 49 51 55 56 59 62 65 68 69 69 73 78 80 83 89 91
31 33 31 27 27 29 32 34 38 39 43 46 48 50 52 55 56 53 46 39 34 27 23 17 11 13 27 42 52 54 55 58 59 63 64 65 66 68 72 75 77 80 83 86
33 33 32 29 28 27 29 34 35 38 40 42 46 48 50 53 54 53 49 42 36 32 27 23 18 13 16 24 40 52 62 63 62 63 67 68 68 69 71 73 75 78 80 84
35 35 33 30 30 30 30 34 34 35 38 40 42 45 48 51 54 54 49 45 39 33 30 27 24 21 17 18 26 33 46 56 64 69 73 71 71 70 70 74 76 80 81 84
40 38 36 34 31 33 31 33 34 36 36 39 40 43 45 48 52 53 51 46 41 38 32 29 26 24 24 24 22 26 32 38 46 52 57 64 70 70 68 67 68 68 65 64
43 38 38 36 33 34 33 34 36 35 37 39 41 42 44 46 51 52 50 50 45 38 37 31 28 27 26 26 26 27 29 31 31 38 44 45 44 46 48 48 48 49 53 54
42 42 40 38 35 32 36 38 40 38 37 39 41 41 44 46 52 53 52 50 50 43 39 36 31 29 28 28 28 29 28 31 31 28 29 33 35 37 39 42 46 48 50 51
44 42 45 43 37 34 37 40 42 40 37 39 42 42 44 45 51 52 52 51 52 47 41 39 36 32 30 30 30 29 28 28 33 34 33 34 34 36 40 44 46 47 49 52
48 46 45 42 40 34 37 42 43 43 40 40 41 42 45 46 51 51 53 55 53 52 45 42 39 35 31 30 31 30 29 27 29 37 38 36 36 39 41 42 44 47 50 53
54 50 46 45 43 37 37 46 45 44 43 43 42 43 46 47 51 52 55 54 55 54 48 45 40 36 34 31 31 31 29 27 28 32 39 39 39 40 39 41 45 47 48 52

GFSCGP_250_spd_117.txt.gz
Wind_Speed
37 43 49 54 60 62 60 57 56 52 46 33 29 23 20 19 18 22 28 37 44 50 60 71 80 85 84 88 72 76 58 85 94 84 84 77 73 66 61 56 57 55 56 52
37 42 47 52 58 61 61 57 57 56 52 41 32 27 23 21 23 23 26 32 43 48 53 64 74 80 81 84 78 31 50 65 76 85 76 74 68 63 56 62 62 61 57 52
37 41 46 51 55 60 63 64 60 58 56 52 40 32 26 25 29 27 25 33 39 47 47 55 64 74 80 82 99 67 36 46 61 85 78 66 61 59 62 61 59 57 54 53
35 39 43 48 52 56 62 66 65 60 59 56 50 39 30 28 30 32 29 28 35 37 42 48 58 67 77 84 87 97 77 52 57 69 81 77 60 59 63 64 63 61 56 59
34 38 40 46 51 56 61 65 66 66 62 61 56 48 40 36 34 29 25 20 28 33 35 45 51 59 70 80 92 94 97 34 51 67 81 83 76 69 63 58 58 60 58 58
34 36 39 44 47 53 58 63 67 70 65 62 63 60 47 41 40 30 19 14 18 27 26 39 45 50 62 74 80 78 90 34 46 63 76 74 70 63 61 55 52 55 62 59
34 36 39 41 46 50 54 61 66 67 71 67 65 62 56 47 41 36 22 12 9 20 21 27 39 41 52 65 74 73 83 74 64 59 49 64 66 57 55 59 61 55 54 54
33 35 38 40 43 47 52 56 61 66 71 71 65 63 64 56 47 41 25 17 6 9 15 22 26 41 42 54 67 78 95 58 56 55 59 65 69 65 52 55 62 63 59 57
30 34 37 38 40 45 48 52 58 65 69 70 70 66 65 61 51 46 37 26 12 3 14 21 20 28 34 47 60 72 87 83 62 55 53 54 63 71 60 58 65 64 64 61
28 32 35 37 38 40 43 48 54 58 63 67 71 72 67 65 60 48 43 35 25 10 9 18 20 24 28 38 53 63 75 87 84 72 61 55 60 69 67 66 64 66 68 68
25 29 33 35 36 36 39 45 49 54 59 65 67 71 69 65 61 56 45 39 34 18 9 10 13 17 24 33 43 54 64 73 74 71 79 66 63 65 69 70 69 68 70 73
24 28 31 33 35 35 36 41 45 50 54 59 65 65 69 65 60 56 50 38 33 28 10 10 10 14 21 29 39 48 56 67 68 70 75 68 65 69 72 75 73 72 72 67
26 26 30 31 31 36 34 37 41 46 50 54 59 64 65 66 61 56 49 44 31 21 19 16 8 11 19 27 35 45 51 59 63 67 76 70 63 69 74 77 79 77 82 80
26 26 29 29 28 33 35 34 36 41 45 49 53 57 62 63 63 57 51 45 39 28 16 14 13 11 14 24 29 36 45 54 58 60 77 78 69 69 73 77 79 80 82 84
30 35 30 31 25 27 34 33 33 37 40 44 48 51 55 59 61 59 53 46 39 35 27 15 9 13 16 23 30 35 43 49 55 59 67 81 77 75 74 75 80 78 75 76
34 32 29 31 25 26 32 34 33 34 37 39 43 47 49 53 56 58 56 50 40 34 29 22 13 10 18 25 33 37 41 46 52 57 63 77 86 80 81 81 83 82 83 86
33 33 31 28 28 25 31 36 33 32 33 36 39 42 45 48 51 54 54 53 48 40 29 24 20 13 14 26 33 40 41 42 48 56 65 69 83 87 82 84 85 89 87 86
35 34 30 29 34 28 29 33 34 31 32 34 37 39 42 44 46 49 53 52 51 46 38 28 21 19 15 18 33 46 48 51 45 50 57 61 67 79 89 87 88 88 90 92
38 33 31 31 33 30 30 31 33 31 30 33 34 37 38 42 43 46 49 50 52 50 45 36 28 21 17 17 18 29 48 58 60 61 61 63 65 66 74 77 80 83 84 82
40 38 39 33 35 34 32 31 33 31 31 32 34 36 37 39 42 44 46 48 50 53 51 44 37 30 24 20 18 21 25 34 47 61 68 69 69 69 68 70 74 77 77 78
43 41 35 35 35 37 35 35 35 33 33 34 33 35 37 37 39 43 45 46 47 53 53 49 43 38 34 28 25 25 25 27 30 36 46 51 62 70 73 74 75 76 77 81
45 43 39 40 35 34 38 39 36 34 34 34 35 36 37 38 39 41 45 47 47 50 55 54 50 41 39 34 31 29 29 29 32 35 37 39 42 46 57 64 61 59 59 60
48 46 44 45 40 34 38 43 39 37 36 35 36 36 38 39 39 41 44 47 48 50 55 58 56 49 41 39 35 32 31 31 30 34 36 35 37 36 36 40 42 46 49 52
57 52 49 48 45 38 33 41 45 42 38 38 38 38 39 40 39 40 44 47 49 51 54 58 57 54 48 42 39 35 32 32 29 31 34 33 34 38 38 38 39 42 46 49
60 56 52 50 46 39 36 36 47 47 42 41 41 41 43 44 41 42 45 47 51 52 55 58 58 55 53 45 42 39 34 33 31 29 31 32 32 37 43 43 43 45 47 48
63 63 60 56 52 45 44 40 42 51 46 45 45 43 46 46 44 45 47 48 51 53 55 58 59 58 54 51 46 41 36 34 33 29 30 32 32 33 38 44 47 49 50 49

GFSCGP_250_spd_120.txt.gz
Wind_Speed
26 32 36 43 49 54 60 63 64 61 55 53 52 40 29 23 20 20 21 21 32 41 47 50 59 71 81 85 87 93 80 69 70 70 74 68 72 69 68 72 71 69 69 67
27 33 38 42 48 52 56 60 64 64 58 52 54 47 33 28 29 26 23 24 25 36 43 47 55 65 72 79 80 80 86 69 53 54 57 64 70 71 72 74 74 71 68 67
28 32 38 42 46 50 53 59 64 66 65 60 54 49 36 28 29 31 27 23 25 29 39 46 46 52 62 74 77 71 82 75 52 44 56 50 56 63 68 76 78 77 69 66
27 33 38 43 44 47 50 55 60 66 69 66 60 54 43 32 30 27 25 21 18 28 31 41 44 46 56 69 70 64 68 66 57 45 50 61 61 58 57 61 71 76 76 71
26 31 37 42 45 44 48 53 58 63 67 68 63 60 61 46 39 29 18 16 15 20 25 32 42 41 50 57 66 65 78 67 42 37 43 54 56 52 55 64 52 57 67 69
24 29 35 39 44 43 46 51 55 62 65 67 69 70 59 49 46 39 29 17 11 13 15 25 35 36 44 56 70 66 76 60 52 50 43 40 52 53 61 63 68 61 54 58
22 27 33 37 40 43 45 48 52 58 64 70 74 69 61 57 50 47 38 25 15 3 7 20 25 31 43 64 80 84 82 75 67 56 58 53 56 54 60 65 73 74 67 60
21 26 32 35 38 41 43 47 50 53 60 66 71 69 70 65 55 49 45 36 23 12 13 26 30 35 46 64 83 86 86 73 63 66 58 47 50 49 52 66 59 67 67 69
21 24 32 33 35 37 41 44 48 52 56 60 62 69 69 67 64 55 50 46 31 19 16 22 15 30 44 63 86 95 98 78 65 67 63 71 60 51 49 60 63 67 64 66
21 22 32 31 33 35 38 43 46 50 52 56 62 67 72 69 66 61 55 46 42 27 9 21 22 29 41 57 76 100 102 99 83 76 72 68 50 47 51 59 59 64 63 65
23 22 28 29 31 38 37 40 44 47 51 54 58 62 65 70 67 63 57 51 42 35 33 12 7 21 35 46 68 87 110 110 108 95 77 68 58 53 58 59 63 68 67 65
29 21 20 27 39 36 37 37 41 44 47 50 54 56 60 63 67 65 59 54 50 39 28 24 21 4 16 33 49 70 93 107 109 112 97 86 69 74 65 67 67 71 77 74
31 25 21 32 34 29 34 36 39 43 44 47 49 53 56 57 60 64 64 58 52 46 39 24 17 14 7 7 29 51 70 90 99 103 100 91 77 67 65 63 64 71 73 75
31 26 27 36 27 28 31 34 37 40 41 44 45 49 51 54 55 57 60 62 56 50 42 36 23 11 10 5 1 29 51 69 83 91 89 98 83 73 69 71 71 70 68 74
34 29 36 31 23 26 26 30 34 36 38 40 43 45 47 48 51 53 54 56 58 55 48 40 31 25 13 9 4 6 32 54 68 84 91 95 98 99 94 90 87 83 80 80
38 33 28 26 23 24 25 28 32 34 35 37 39 42 43 46 46 48 50 51 53 54 53 47 39 29 22 14 12 12 13 28 47 61 71 83 90 96 93 87 86 90 90 82
36 31 28 26 25 23 25 26 29 34 33 35 36 38 41 42 44 45 45 49 49 51 53 52 48 38 29 21 14 17 20 23 28 37 49 55 62 69 78 86 89 92 93 94
39 35 31 27 25 24 25 27 27 30 33 33 34 37 38 40 40 42 43 44 46 48 49 52 51 46 38 30 22 16 19 29 33 34 41 46 54 64 69 75 80 92 95 97
39 36 36 34 30 26 29 26 27 29 32 35 32 34 37 38 38 38 40 42 42 44 47 48 52 47 42 38 30 25 23 21 26 36 45 51 53 57 63 67 72 79 83 92
45 40 39 35 34 29 28 28 28 30 32 35 33 33 35 37 38 39 38 40 41 42 43 45 47 49 45 41 38 33 27 26 28 29 31 35 43 53 64 72 74 69 70 73
58 51 44 40 36 31 33 28 31 33 35 37 34 32 33 37 37 39 40 40 42 41 42 44 44 47 49 45 42 39 35 31 30 30 31 34 37 40 43 46 53 61 66 72
58 50 47 45 36 34 33 33 35 35 38 39 37 36 34 37 39 39 40 42 43 44 43 43 46 46 49 52 48 44 41 39 35 33 32 34 36 37 37 38 40 47 51 52
60 57 51 50 43 37 34 36 40 41 40 38 39 38 39 40 42 42 42 43 45 46 46 45 45 47 48 52 55 51 47 44 43 38 36 33 36 37 35 33 33 38 40 38
67 62 56 53 53 49 44 39 42 43 43 41 39 40 41 42 45 46 46 46 48 47 48 48 48 48 49 52 56 56 55 48 45 43 38 36 35 36 35 33 32 34 39 41
67 66 64 64 61 56 53 48 44 45 46 48 46 45 43 42 47 50 49 49 51 50 50 51 50 50 52 53 56 59 59 54 48 46 41 38 35 35 35 34 34 34 36 42
64 64 66 67 67 63 56 51 46 44 45 55 51 48 46 44 48 51 53 52 53 53 52 53 53 53 54 55 59 61 61 59 53 49 44 40 37 35 35 35 35 36 36 37

GFSCGP_250_spd_123.txt.gz
Wind_Speed
18 24 30 35 39 44 50 54 57 61 64 63 55 53 40 34 28 20 17 17 25 36 45 58 70 82 95 105 114 110 115 93 79 76 57 58 56 64 62 64 64 58 62 66
18 22 28 34 39 45 49 53 55 59 64 67 62 54 46 37 36 31 18 19 23 30 41 50 61 71 81 96 97 104 103 103 89 71 58 64 66 50 55 54 54 62 65 66
17 22 29 33 38 44 48 52 55 57 61 66 66 57 45 35 33 30 26 19 23 29 35 44 52 59 66 78 92 96 93 100 100 79 45 48 56 64 62 71 72 63 64 69
16 19 28 32 37 41 45 49 53 58 61 65 68 64 59 48 37 22 18 22 21 26 30 34 42 48 56 67 80 92 95 91 89 88 56 40 42 47 55 58 58 57 55 62
18 21 26 33 36 39 44 49 53 59 61 65 69 73 70 57 46 38 25 16 17 13 22 27 32 40 46 54 72 87 94 95 91 92 65 38 39 45 49 59 61 66 62 55
20 19 25 30 33 38 42 47 52 58 60 62 66 74 71 63 55 47 34 26 15 2 9 15 22 28 38 49 61 79 89 89 94 90 87 67 44 49 55 64 55 54 57 50
19 20 22 29 30 37 41 44 50 54 58 61 65 69 71 70 64 53 45 32 19 9 14 17 19 25 35 42 56 71 81 83 86 96 80 59 55 54 59 56 57 57 52 49
21 21 21 26 26 41 42 41 46 51 56 59 62 62 65 68 64 58 52 42 30 14 14 27 25 25 32 41 54 68 78 85 85 89 70 65 58 63 63 53 46 49 51 56
20 20 20 21 22 36 39 37 41 47 53 55 57 60 62 65 67 63 57 45 31 20 11 8 23 35 38 44 57 70 77 82 83 90 71 65 66 68 68 53 50 51 54 61
20 21 23 18 24 34 32 32 37 42 46 51 54 60 63 64 65 64 58 52 37 23 21 7 16 27 34 45 60 72 74 76 79 85 82 78 69 65 65 64 60 56 55 57
21 18 20 19 28 30 25 29 33 37 42 48 53 56 58 59 62 64 63 57 48 36 27 21 2 20 31 47 61 73 71 76 83 82 84 85 71 65 62 59 59 58 56 58
31 25 23 22 25 31 25 26 28 33 38 42 46 51 52 55 59 58 61 60 55 46 37 23 18 9 25 44 63 72 75 84 81 83 88 82 78 67 71 69 61 54 51 54
33 34 32 25 25 26 22 23 27 29 33 36 40 45 49 50 52 57 55 57 58 51 44 36 19 13 18 32 64 71 77 90 89 90 85 79 74 69 75 74 62 56 58 59
40 39 41 32 25 25 20 21 23 25 29 32 36 38 43 47 48 50 52 52 53 54 49 41 32 19 9 21 51 78 86 92 85 88 87 78 80 75 73 70 70 72 69 66
46 44 44 35 23 20 19 18 21 24 25 28 29 34 37 40 43 45 45 49 48 48 50 49 39 30 21 7 23 62 82 89 88 88 86 85 81 80 77 77 76 75 74 73
50 45 44 35 28 22 21 15 18 23 24 27 29 30 33 36 39 41 43 42 45 46 43 45 47 42 32 21 11 13 47 80 90 91 92 92 92 89 83 87 88 83 83 81
50 43 43 34 25 26 22 18 19 20 22 24 28 30 32 33 34 37 39 41 40 41 44 40 39 42 45 36 25 11 3 20 47 74 92 103 105 105 106 106 108 107 107 106
50 43 41 30 24 23 25 24 22 19 21 24 27 29 32 33 32 34 36 39 39 39 38 41 39 37 37 39 40 29 20 9 11 25 37 55 76 90 98 103 103 105 108 106
50 45 45 33 37 32 27 26 25 22 23 24 26 30 33 34 31 35 35 37 39 38 39 39 40 39 36 35 36 39 36 26 21 19 20 25 35 44 52 59 67 73 82 86
56 49 46 46 30 30 28 29 28 26 26 26 28 29 34 35 34 35 37 37 39 39 38 39 39 40 39 37 36 36 38 39 30 27 25 26 29 33 37 42 47 55 61 64
55 47 44 41 36 41 36 32 31 31 27 27 27 30 33 36 35 35 38 39 41 41 41 40 40 40 40 40 38 38 38 41 40 36 30 29 29 32 37 41 44 47 51 55
56 51 50 46 46 47 45 37 35 31 29 29 32 33 33 35 38 39 40 42 42 44 44 43 42 42 42 41 41 40 40 41 41 41 42 36 32 32 33 37 41 42 44 45
58 59 56 49 47 47 45 38 36 36 36 39 38 38 35 34 37 42 43 45 44 45 46 47 46 45 45 44 42 42 44 44 46 43 46 46 39 34 32 34 37 41 40 40
61 58 53 53 53 54 53 46 42 44 45 45 47 45 42 40 37 41 43 47 46 47 46 46 48 47 46 46 43 42 46 47 47 49 49 51 44 39 35 33 35 38 39 38
63 62 58 57 55 60 55 51 46 47 50 50 48 44 42 42 40 38 43 45 47 47 46 47 48 48 49 46 45 43 46 50 52 54 50 56 51 43 38 36 36 38 38 39
60 58 60 59 64 56 54 51 48 45 48 50 45 46 46 42 44 43 45 46 48 48 49 48 49 51 51 48 46 44 48 53 55 57 53 59 57 48 41 38 37 37 38 38

GFSCGP_250_spd_126.txt.gz
Wind_Speed
9 13 20 22 29 33 39 44 49 53 58 62 67 66 59 52 46 34 19 20 23 34 57 72 85 107 113 112 92 95 88 89 82 69 55 57 49 40 53 58 55 62 60 65
9 13 21 24 28 32 35 43 46 52 57 62 66 70 65 51 39 36 31 16 24 30 46 71 80 102 121 102 107 101 89 84 82 82 63 61 55 55 54 54 56 53 56 59
11 11 18 24 27 30 35 41 47 52 55 59 66 70 71 63 51 43 29 26 17 28 37 58 80 88 110 110 113 108 96 86 84 79 71 71 60 54 53 49 49 53 56 59
16 13 18 22 23 32 37 39 44 48 53 58 64 69 75 71 62 49 31 22 22 15 30 43 64 82 102 122 105 115 108 100 89 85 76 77 58 50 52 53 56 59 56 62
19 16 15 19 17 32 38 38 41 47 51 56 60 68 73 76 68 59 41 25 13 12 20 33 48 67 86 116 126 109 108 106 98 98 82 74 68 54 46 51 50 51 55 59
20 18 14 16 17 29 35 35 39 45 48 54 57 63 69 73 73 64 51 37 25 8 11 24 35 47 68 88 114 131 121 112 104 103 98 81 78 71 60 49 53 60 59 65
20 19 18 16 16 24 30 31 35 40 45 49 54 58 62 68 73 68 58 45 34 24 2 14 20 23 44 64 82 103 128 126 117 117 108 90 76 70 61 58 56 55 64 67
25 24 20 18 14 22 27 27 31 36 41 45 49 54 58 62 67 71 64 53 43 30 9 17 26 27 36 50 63 76 92 115 129 120 120 115 107 78 72 64 58 63 68 69
30 25 21 15 13 17 25 23 29 32 36 41 45 48 51 56 60 68 68 60 50 39 27 7 18 28 38 44 50 59 69 85 102 119 129 123 115 100 86 76 69 73 69 67
36 31 20 16 15 15 19 23 24 27 30 34 38 42 46 52 56 60 65 63 56 46 36 23 9 9 20 32 40 47 56 68 79 99 105 105 100 98 97 85 76 70 67 69
40 38 31 19 17 14 15 20 21 24 28 30 34 38 43 47 49 53 58 61 58 53 42 34 22 10 8 17 27 37 45 58 69 87 93 94 88 98 96 86 77 76 73 69
46 44 37 33 25 19 14 15 17 21 25 27 31 35 37 42 45 48 51 55 57 55 50 42 31 22 11 13 21 31 40 50 62 78 90 92 89 98 97 87 83 79 75 77
50 48 41 37 30 27 17 13 12 16 22 24 27 31 34 37 40 44 47 47 50 53 52 47 40 27 20 16 16 25 38 50 60 73 84 86 83 91 95 87 87 81 81 79
54 50 47 40 37 33 29 19 13 14 19 22 24 28 31 33 36 38 42 44 44 46 48 47 45 39 30 19 14 21 34 47 59 68 74 79 87 80 84 85 85 80 76 72
56 53 49 46 43 38 35 22 16 14 16 20 23 25 29 32 33 34 37 40 43 42 42 44 44 41 38 32 19 15 30 43 58 59 71 76 88 82 82 85 87 88 93 84
56 53 51 46 44 41 40 31 19 15 17 18 21 24 25 30 32 31 34 36 37 40 39 38 39 40 38 34 30 22 14 39 54 62 66 78 85 93 81 85 84 85 88 85
58 54 51 46 46 43 37 20 22 19 18 15 19 21 24 26 30 31 32 34 36 36 37 36 36 36 36 35 32 29 21 5 40 57 61 63 83 83 93 89 92 90 86 83
59 56 51 48 45 41 30 16 24 24 19 17 19 20 22 23 29 30 31 33 36 36 36 35 35 33 33 31 30 30 26 20 8 22 43 59 66 72 80 91 89 90 93 97
60 56 53 47 45 44 37 34 26 27 23 21 21 19 19 23 25 27 28 32 34 37 37 38 37 34 33 31 29 27 26 23 19 15 11 21 50 66 70 83 91 100 106 112
61 59 53 48 44 39 44 32 23 27 23 23 24 19 18 23 26 27 27 31 34 34 35 36 38 37 36 33 30 29 27 26 26 22 19 19 21 24 30 43 63 83 90 91
60 55 49 50 48 46 43 31 28 31 29 27 26 21 20 25 29 32 31 31 33 34 34 34 37 38 37 36 34 32 31 29 27 28 28 27 26 27 30 34 37 42 49 55
58 54 51 50 46 49 41 34 33 35 37 31 25 26 31 31 32 36 35 32 34 35 34 35 36 36 37 37 37 36 35 32 30 31 33 34 34 34 35 33 35 38 40 44
60 54 53 48 47 39 38 37 35 36 38 33 30 35 38 38 39 38 36 35 36 37 36 37 37 37 39 39 40 39 38 36 31 32 36 37 39 40 43 41 37 35 38 39
65 58 54 52 47 44 44 42 42 35 37 36 36 41 42 41 42 41 39 36 39 41 39 39 40 41 40 42 43 40 41 39 34 33 36 39 42 44 48 47 40 38 38 39
65 60 52 49 49 48 47 50 39 39 39 40 43 44 45 44 42 43 42 40 44 45 43 42 42 43 42 43 43 40 41 43 38 35 37 41 44 46 51 52 46 42 38 38
65 58 52 46 48 50 50 44 43 43 43 41 40 43 46 46 43 41 41 41 44 48 47 45 43 45 46 44 42 40 43 44 42 39 39 42 45 49 52 55 53 47 42 39

GFSCGP_250_spd_129.txt.gz
Wind_Speed
15 9 9 13 15 20 25 31 35 39 46 51 57 64 70 72 62 50 39 30 18 23 33 47 67 91 91 88 95 90 86 79 73 74 69 66 65 49 46 46 51 53 51 53
14 10 9 13 17 21 28 31 35 37 43 50 55 62 68 74 72 60 42 36 24 20 32 43 66 91 98 98 98 94 87 85 78 73 71 68 59 58 55 53 48 53 51 52
17 15 13 12 12 21 30 31 34 36 40 47 53 60 66 71 74 65 49 35 27 16 29 39 64 92 101 104 102 102 93 94 81 75 79 67 57 53 57 51 47 56 51 53
20 19 15 11 15 17 26 29 32 35 39 44 50 57 65 69 74 71 59 39 25 12 22 31 59 84 97 104 111 103 102 96 97 86 79 74 65 50 53 57 44 50 55 54
21 20 14 15 14 16 22 26 29 33 37 41 47 53 60 68 72 77 68 50 27 8 16 28 51 76 99 108 107 109 97 97 96 86 89 78 68 62 57 54 60 47 53 53
23 19 16 16 18 16 20 22 25 31 36 40 45 50 55 62 67 72 73 62 42 20 2 21 41 67 95 107 107 105 98 99 99 90 86 86 77 68 65 63 62 63 63 59
29 23 19 20 21 18 18 19 21 28 34 38 43 46 50 56 64 68 71 70 56 34 18 11 27 50 80 101 114 108 108 97 97 96 94 93 88 76 67 68 61 56 54 57
31 28 26 24 24 17 14 17 18 23 29 34 38 42 46 52 57 63 67 69 66 50 26 6 20 33 63 93 104 119 112 118 104 105 101 102 92 87 83 72 76 68 62 60
37 36 35 29 26 19 13 17 15 18 26 32 36 39 42 47 51 57 61 64 65 61 49 22 8 26 49 71 102 115 119 115 115 103 104 103 101 89 85 78 73 65 63 65
40 38 38 34 26 21 15 17 16 16 22 29 33 36 37 40 44 50 54 59 61 62 59 47 30 5 24 48 87 107 122 119 112 115 107 104 105 98 92 82 70 67 66 63
43 41 39 37 34 29 23 16 17 16 17 23 30 32 35 37 38 42 48 52 54 56 58 58 46 31 10 11 39 75 110 126 116 114 107 107 109 105 95 91 79 77 81 75
49 46 43 40 39 37 32 26 18 20 16 19 26 29 32 35 37 36 40 45 48 50 52 53 55 47 33 15 4 26 45 75 103 125 127 121 120 112 102 93 91 84 82 81
54 52 49 45 43 41 37 30 27 24 20 23 21 26 29 32 34 36 35 39 42 45 46 47 49 51 49 40 25 9 6 27 46 67 96 122 121 114 115 109 103 99 103 96
55 54 52 49 45 42 39 35 30 31 22 18 22 21 25 28 30 33 34 36 38 38 41 42 43 44 45 46 44 36 21 9 10 29 52 72 84 95 112 129 124 119 116 114
57 55 52 49 46 43 41 38 35 33 27 20 22 19 21 25 25 28 30 32 35 37 37 37 39 39 39 39 41 41 40 31 21 13 20 33 49 63 73 83 94 107 110 114
64 58 55 50 45 43 42 39 35 33 20 25 24 20 19 21 22 24 27 28 31 32 33 34 34 36 37 36 35 35 35 31 24 21 19 22 35 47 57 65 77 89 91 92
62 62 59 54 49 44 44 39 35 31 23 21 24 22 18 19 19 21 24 26 27 29 29 29 31 33 32 32 32 31 30 30 27 18 16 20 28 38 52 62 71 81 86 88
62 64 63 59 52 46 45 40 37 32 20 23 24 24 19 19 19 19 20 25 27 29 29 28 28 29 29 31 29 28 28 25 23 20 16 12 24 38 46 53 63 74 82 91
59 57 59 60 55 50 46 45 41 34 27 27 27 27 21 21 20 20 23 25 28 28 29 27 29 29 28 27 28 28 25 25 24 20 17 16 13 14 25 41 55 67 71 83
60 57 55 52 54 52 51 46 42 35 27 31 28 26 21 23 22 23 26 27 29 27 31 28 30 31 30 28 27 28 27 26 25 25 23 20 19 21 23 26 30 35 41 51
61 61 53 50 48 48 50 46 43 38 29 31 27 28 29 26 25 25 29 32 31 29 30 29 33 33 31 30 30 30 30 28 27 27 27 25 24 24 26 29 31 35 38 40
66 60 57 47 40 44 46 46 42 37 37 34 34 34 34 30 27 30 31 33 34 33 30 31 34 35 36 33 33 33 33 30 29 29 30 29 28 29 29 31 34 36 40 41
75 65 58 49 46 49 49 50 44 43 39 37 35 34 35 35 33 33 33 31 33 36 35 34 35 37 38 38 36 36 36 34 31 32 33 34 33 31 33 35 36 39 41 44
76 76 65 54 50 46 45 46 44 37 34 36 34 37 38 36 35 37 34 31 30 34 40 41 39 41 41 41 41 40 39 36 33 34 35 36 36 35 37 38 39 41 44 46
78 83 73 62 54 51 46 45 45 39 33 38 38 39 40 38 38 37 35 37 35 36 38 45 44 45 43 43 43 42 41 39 36 36 38 39 41 40 38 39 41 43 45 47
78 74 72 66 65 55 51 49 45 42 40 41 41 40 40 41 37 38 39 41 39 40 42 44 50 49 45 44 43 42 41 42 40 39 39 41 44 45 41 41 44 45 45 48

GFSCGP_250_spd_132.txt.gz
Wind_Speed
21 20 16 10 7 7 14 20 26 32 36 39 44 51 57 62 69 74 70 51 38 26 21 28 33 47 54 65 72 80 83 87 90 78 83 71 65 68 63 54 53 54 59 56
24 18 18 16 13 15 14 18 26 32 36 41 45 49 56 60 67 72 73 57 42 35 19 25 32 46 53 66 74 80 86 88 83 82 75 66 62 61 63 61 63 61 61 64
28 25 21 21 21 15 19 19 20 28 34 39 46 49 55 61 65 71 73 58 40 31 19 19 31 43 54 68 74 77 84 83 84 80 67 65 65 67 62 61 58 54 54 53
27 26 25 22 22 21 18 17 18 25 32 37 44 49 52 59 64 71 75 71 50 32 19 12 28 41 56 68 72 79 87 86 78 79 71 70 71 71 65 69 60 53 51 53
27 27 27 24 24 23 20 19 16 21 29 35 41 47 50 55 63 68 73 76 60 35 19 5 20 37 52 69 76 84 91 88 85 89 74 74 77 76 75 67 60 55 45 60
30 28 28 24 22 17 18 23 15 18 26 31 38 45 50 51 56 63 68 72 69 44 25 7 9 30 48 68 75 85 94 90 81 84 74 77 81 80 77 74 66 58 58 53
34 31 30 27 25 20 21 21 15 16 22 30 34 41 47 50 50 57 64 67 70 58 34 15 3 24 47 68 74 80 92 98 94 84 80 80 83 80 76 70 64 54 49 46
39 35 32 31 28 24 23 22 16 16 19 28 30 37 43 48 48 51 57 62 66 65 49 27 7 11 40 67 76 78 83 96 96 93 82 79 77 81 75 74 71 66 64 59
44 40 36 34 32 30 28 22 18 16 16 23 29 32 39 44 46 45 49 55 57 60 59 41 19 2 25 62 81 79 87 94 96 92 93 86 82 81 82 80 70 72 78 72
48 44 41 38 36 35 30 22 19 17 18 20 27 29 34 40 43 42 43 47 51 53 54 54 38 18 4 32 77 84 92 96 95 96 96 93 88 84 83 82 81 70 68 67
51 47 45 42 39 36 34 28 27 23 20 22 25 28 30 34 39 39 39 41 44 47 48 48 49 43 20 2 36 84 93 97 99 98 97 98 93 88 86 78 86 84 76 76
55 51 49 46 44 40 37 34 31 28 25 24 25 24 26 28 31 35 36 37 39 42 43 45 44 43 41 30 5 26 77 92 97 92 93 98 94 92 86 81 81 82 84 88
55 54 51 50 48 45 41 37 34 31 28 24 25 21 23 25 27 29 33 34 35 36 40 41 42 41 38 36 33 13 18 62 96 109 108 98 100 96 96 89 91 81 79 88
59 54 53 52 50 48 44 41 38 35 30 27 26 24 21 23 24 25 27 29 33 33 34 37 40 41 39 38 34 30 25 6 30 61 109 103 104 106 100 102 94 94 93 91
59 57 54 50 49 47 45 41 39 36 31 27 25 20 21 20 21 22 23 25 28 31 32 32 36 37 39 39 37 35 32 25 19 10 35 64 105 115 119 115 117 111 105 108
63 62 58 52 47 44 39 39 38 34 31 30 23 17 20 19 19 20 20 22 25 27 29 29 33 34 34 35 36 35 33 32 31 26 18 4 12 31 49 93 111 114 112 110
68 63 58 52 48 42 39 40 40 37 33 29 27 16 19 23 19 19 19 20 21 23 26 27 28 31 31 30 31 32 31 30 29 27 27 27 23 16 10 15 27 39 53 67
58 54 51 51 52 45 50 42 42 40 38 32 28 21 21 25 24 20 20 20 19 23 23 24 24 29 29 29 28 28 28 28 26 25 24 23 21 19 19 18 21 27 33 37
67 58 52 50 46 46 48 47 43 42 40 35 32 26 25 29 28 22 21 22 20 24 24 22 21 25 27 28 28 28 28 27 25 24 22 22 22 22 21 20 20 22 26 33
72 64 55 51 46 38 50 44 44 44 43 40 34 28 28 32 29 24 23 25 23 24 22 22 21 24 26 28 29 28 27 28 27 25 23 22 22 23 25 26 27 28 30 32
67 65 55 51 49 43 51 43 40 43 46 42 34 29 30 33 31 28 25 26 24 26 23 26 25 25 28 29 31 31 30 30 31 30 27 26 27 26 27 29 32 33 34 36
74 68 58 58 48 43 53 49 48 46 40 41 37 28 30 33 35 32 29 28 28 28 27 28 29 28 28 32 34 35 33 31 33 32 31 31 30 31 31 31 34 37 40 42
80 69 62 64 57 56 59 54 45 37 40 42 38 35 32 34 40 39 33 32 29 27 29 33 35 34 34 35 37 38 37 35 34 34 33 33 35 35 34 35 37 39 42 46
84 77 71 66 59 59 59 52 48 43 41 44 42 38 35 36 40 35 31 33 31 28 29 33 38 39 41 39 40 41 42 39 35 35 34 37 40 39 37 37 40 43 44 47
89 82 74 68 64 61 57 54 53 45 45 42 37 38 37 37 39 36 33 35 33 34 38 38 38 39 41 45 45 45 45 43 41 38 39 42 43 42 41 40 42 44 47 49
87 82 77 66 67 69 63 61 55 49 43 34 36 37 35 37 40 38 36 35 39 40 41 40 39 43 43 46 45 42 44 45 46 45 44 45 46 47 45 44 45 46 48 51

GFSCGP_250_spd_138.txt.gz
Wind_Speed
31 30 29 28 25 24 22 21 21 20 24 26 20 30 35 43 50 56 62 65 68 72 63 48 35 29 34 29 28 33 43 51 65 74 77 83 88 88 85 88 71 67 62 65
30 32 30 30 27 25 26 24 23 20 19 13 18 27 34 40 47 54 61 65 68 73 58 45 35 22 16 16 21 29 40 48 58 68 72 79 84 85 82 84 70 64 58 52
31 32 32 32 29 27 28 29 27 27 26 20 19 27 34 38 45 52 59 62 65 69 66 44 30 15 5 8 16 23 30 41 48 63 68 75 82 87 72 76 68 66 63 55
32 34 34 34 31 30 28 29 30 27 29 30 19 24 31 34 42 49 57 59 64 65 69 55 38 20 11 5 10 18 27 36 43 57 63 71 77 76 74 80 72 61 55 62
33 37 37 35 34 33 31 29 30 26 21 17 18 23 27 33 39 46 53 56 61 63 66 60 46 29 15 8 6 16 24 30 39 51 57 64 74 71 73 79 75 66 62 59
36 37 41 39 37 34 33 32 30 26 20 18 18 21 25 30 36 42 50 54 57 61 61 64 52 36 21 12 6 14 21 28 42 50 58 71 73 69 76 74 73 66 67 63
39 38 43 43 40 38 36 32 31 28 22 16 17 21 23 28 33 37 45 49 53 58 61 61 61 47 28 15 7 8 22 34 46 54 65 73 74 73 72 70 66 67 64 64
46 43 44 48 45 42 38 34 32 30 25 16 15 22 22 25 31 33 39 45 49 53 57 59 59 55 40 24 9 8 24 37 48 56 68 71 75 76 75 67 69 66 64 64
55 42 47 51 49 45 42 38 34 34 31 26 19 21 20 22 27 28 33 39 44 48 52 55 56 56 51 31 18 4 22 38 49 58 69 72 71 71 72 65 66 65 71 69
61 53 50 52 53 50 47 42 38 35 34 30 26 23 26 27 25 26 27 33 38 42 46 49 52 54 52 45 26 6 19 36 47 61 71 72 74 72 70 76 72 79 72 71
67 61 53 53 57 55 50 48 42 38 35 32 29 25 25 26 24 24 23 26 31 36 39 42 44 48 51 48 41 22 9 30 43 60 70 76 80 69 60 63 56 71 69 72
70 67 56 57 55 56 54 51 47 42 38 35 29 26 23 23 22 21 20 21 24 29 34 38 38 41 43 47 46 40 18 20 34 55 67 82 82 68 67 61 59 64 65 69
77 70 62 58 52 54 58 55 51 47 42 38 32 28 23 22 21 18 16 15 19 22 27 32 34 35 37 39 41 41 39 19 24 43 58 70 72 73 67 73 71 65 60 57
81 75 65 60 59 62 60 57 55 51 46 41 35 30 25 22 20 17 15 12 14 17 21 26 28 30 33 34 34 36 35 33 19 24 47 67 74 76 73 72 70 70 73 63
82 79 72 68 64 60 60 56 56 54 48 45 39 32 26 22 22 18 15 14 13 14 16 21 23 25 28 31 31 31 28 27 25 18 18 39 61 70 88 67 68 69 72 69
85 84 81 71 69 63 63 58 55 53 50 45 40 34 27 23 22 18 17 17 16 14 14 16 18 21 24 28 28 27 26 24 19 15 11 3 30 58 78 76 75 73 77 77
88 88 86 75 68 70 63 56 55 56 51 47 41 35 28 24 21 20 19 18 18 17 15 15 16 19 22 25 26 28 25 22 21 17 10 5 5 10 29 57 73 81 86 85
92 92 90 86 72 69 57 59 57 54 50 48 42 37 31 28 24 21 21 20 19 19 17 16 17 18 19 23 26 25 25 24 22 21 20 17 11 8 9 14 18 24 32 41
96 99 92 89 72 59 60 59 58 54 53 46 40 38 33 30 26 22 24 21 23 20 22 19 18 21 20 23 26 27 26 25 24 24 23 23 22 20 17 17 17 19 20 22
101 101 98 93 80 57 56 61 60 55 50 48 42 38 35 31 28 27 25 24 25 22 22 25 21 23 23 24 25 29 30 28 25 27 28 28 25 24 25 24 24 25 25 26
104 106 100 89 81 68 62 65 62 54 57 53 46 41 38 35 33 32 30 26 27 27 24 27 28 24 25 26 28 29 30 30 28 30 32 32 30 28 26 26 27 28 30 31
105 108 101 93 84 70 57 64 55 62 62 56 50 45 40 35 31 30 27 28 27 28 27 27 31 29 26 28 31 32 32 34 31 31 35 36 34 33 32 30 30 31 33 35
110 109 101 91 79 65 56 65 67 67 63 56 51 47 42 37 32 28 29 27 28 28 29 28 32 34 33 31 34 35 34 35 34 34 41 42 40 38 36 36 36 36 37 38
109 109 103 97 89 77 68 71 72 68 65 57 51 48 44 39 32 29 28 29 31 31 30 33 31 35 35 34 36 37 37 37 36 36 49 44 39 38 37 38 41 42 43 43
111 114 105 96 92 80 73 67 72 70 64 58 54 48 41 34 29 30 27 26 30 33 33 34 32 32 33 34 37 39 40 38 35 38 46 34 27 32 36 40 43 44 44 47
115 112 107 95 94 86 75 66 67 68 67 60 55 47 39 33 30 28 26 25 27 30 32 30 30 30 31 33 40 42 40 40 37 42 46 39 40 41 31 36 41 45 46 47

GFSCGP_250_spd_141.txt.gz
Wind_Speed
26 26 31 32 34 33 32 31 30 28 27 26 26 27 25 27 32 39 46 56 61 65 70 71 66 51 39 28 22 19 29 37 46 55 66 79 88 95 97 95 102 72 67 69
26 26 27 34 35 35 33 32 30 28 27 30 24 22 26 28 32 40 45 53 59 64 69 70 62 44 32 24 16 18 26 34 43 50 61 75 85 92 96 94 98 101 69 69
31 28 25 31 35 36 34 33 32 30 29 29 28 34 24 28 30 37 43 51 57 62 67 68 58 38 28 19 13 18 22 28 35 42 55 69 80 85 90 90 93 94 85 70
33 32 29 27 36 37 37 33 32 32 32 31 32 30 27 28 28 35 40 48 54 59 65 66 57 39 28 14 7 14 19 23 29 37 45 57 67 74 82 87 88 93 84 69
39 36 35 26 32 39 39 35 34 31 31 32 27 22 20 25 26 32 37 45 51 56 61 64 60 41 31 19 7 2 8 15 19 25 34 47 58 67 73 77 84 84 86 72
42 43 39 35 28 38 41 38 35 33 31 31 27 22 20 25 25 29 34 41 47 54 58 59 60 47 36 24 15 7 7 13 17 21 32 41 54 64 74 75 80 78 88 73
45 45 43 41 35 34 42 41 37 35 34 33 30 25 22 22 22 27 32 38 43 49 55 55 58 56 39 28 18 10 6 12 21 30 34 43 49 59 72 74 78 81 88 79
52 45 46 49 46 36 40 44 41 37 35 34 32 25 20 21 23 26 30 36 39 44 50 51 54 56 50 32 18 12 6 11 26 35 38 45 51 55 70 70 76 81 82 73
60 56 49 54 52 43 38 45 45 41 38 36 35 30 26 22 26 26 28 33 35 38 45 48 50 52 53 43 23 9 4 8 27 42 44 50 56 51 67 68 78 76 82 78
67 63 56 54 56 51 40 44 47 45 41 39 36 34 31 28 28 29 27 29 33 34 38 43 46 48 50 50 34 12 1 10 23 37 42 47 54 62 69 73 75 71 78 73
72 69 62 56 56 60 54 43 46 48 45 41 39 37 33 30 28 27 25 24 28 29 31 37 42 45 45 47 48 26 4 6 18 32 38 46 56 64 66 64 66 68 72 67
78 79 69 65 60 59 58 50 46 50 51 46 41 39 33 28 26 27 25 21 24 25 27 29 36 41 42 42 43 43 17 2 13 23 32 42 53 60 57 58 62 67 71 74
86 79 76 68 60 54 58 57 52 52 53 51 45 41 35 30 26 26 25 21 21 22 22 24 27 33 39 39 39 40 38 12 8 16 26 35 50 53 58 58 60 63 65 63
91 86 81 70 69 69 62 64 57 51 53 56 49 44 39 34 30 27 25 22 20 21 19 20 22 25 32 36 35 34 33 32 16 8 18 29 42 52 59 63 64 63 60 61
92 89 84 81 77 66 66 66 58 47 59 56 53 47 44 36 31 28 27 24 22 22 19 18 19 20 24 30 34 32 29 26 24 18 9 23 36 51 58 57 63 58 57 52
92 87 89 84 87 70 75 66 59 55 50 58 57 51 46 41 35 30 27 26 23 21 20 19 17 18 18 22 28 31 30 26 21 18 13 3 25 40 55 62 67 62 57 59
96 91 92 86 92 84 77 64 59 58 53 61 58 53 49 44 38 32 29 27 25 22 20 21 18 16 17 17 20 26 29 29 25 20 14 7 3 13 41 52 68 75 72 76
98 95 96 91 97 91 61 73 65 62 61 58 59 55 50 45 37 34 31 29 27 23 22 22 21 17 17 17 17 20 24 26 26 23 21 18 13 6 11 21 46 66 76 82
100 100 100 95 97 82 78 74 68 60 59 59 62 56 51 46 39 36 35 30 28 26 23 23 24 22 19 20 19 20 22 25 24 23 24 24 25 24 19 15 18 24 29 34
100 102 105 102 99 94 76 74 70 64 61 58 60 55 53 48 42 38 37 32 28 30 25 24 24 25 22 22 22 24 21 24 27 26 26 23 24 27 27 25 23 24 27 30
99 103 103 102 99 93 84 79 77 64 60 63 64 59 54 50 41 40 38 34 31 31 30 28 26 25 26 25 25 25 25 26 27 30 29 28 28 31 32 30 29 29 31 32
97 98 95 99 100 93 87 81 75 62 70 69 65 60 57 45 45 40 38 36 33 34 32 34 31 25 27 27 27 28 28 29 30 30 32 29 36 39 34 31 29 29 30 32
101 100 93 96 90 87 86 80 75 68 73 71 66 62 53 50 44 40 38 33 31 32 33 35 35 28 26 29 29 29 29 30 31 32 35 29 31 35 34 30 29 30 30 32
96 96 99 98 96 91 91 86 75 71 71 72 68 64 59 53 47 44 37 34 31 30 33 33 32 30 30 31 31 30 30 32 33 35 33 31 31 37 39 29 29 28 29 31
95 100 98 93 95 94 92 88 79 76 72 74 71 66 61 57 52 45 38 36 34 32 35 35 35 33 33 33 29 30 31 32 34 35 32 35 36 39 45 42 33 33 32 35
97 102 99 94 95 94 92 94 86 79 75 74 72 68 63 58 53 46 41 40 34 31 31 30 34 35 33 31 28 31 32 35 36 35 35 35 37 43 46 48 43 39 36 35

GFSCGP_250_spd_144.txt.gz
Wind_Speed
26 25 22 18 21 29 29 33 32 32 32 32 30 31 33 33 33 37 41 34 43 50 57 66 73 79 80 65 47 31 29 30 34 42 50 62 78 91 92 90 94 89 92 86
32 28 28 23 23 22 27 32 34 33 33 32 31 31 29 30 32 32 33 34 42 48 56 64 71 78 75 61 43 27 21 25 33 40 50 61 70 86 94 90 94 93 94 85
32 32 32 26 25 23 24 30 35 35 32 32 30 33 34 31 34 32 30 33 40 45 54 62 70 75 72 55 41 26 20 20 25 32 45 59 65 81 90 96 91 90 93 80
36 39 33 29 30 24 24 26 34 34 34 32 33 32 30 32 27 27 30 31 38 44 52 60 66 70 70 52 37 23 15 14 24 30 45 53 60 72 86 94 92 84 92 89
45 41 38 35 34 31 27 26 30 35 35 35 37 33 34 32 27 28 27 30 36 41 49 57 63 66 69 54 35 23 8 8 20 23 34 44 49 64 78 86 93 90 92 97
52 45 44 41 36 37 33 27 29 35 36 38 36 31 32 32 28 27 28 30 35 40 45 53 60 62 65 57 36 22 12 4 11 20 30 37 47 55 69 77 83 90 89 103
60 53 46 45 39 39 40 32 28 34 36 39 40 33 30 31 31 30 28 28 34 40 42 48 56 59 61 61 41 24 12 4 7 15 24 32 35 43 56 69 77 90 89 91
66 58 55 52 48 43 39 40 35 30 34 38 42 38 33 31 32 31 29 27 33 38 39 42 51 56 57 59 48 30 14 3 7 14 16 19 26 34 46 59 72 84 90 96
70 62 64 55 55 48 43 41 44 33 33 38 44 41 36 33 34 34 31 30 32 34 35 39 43 52 53 55 55 31 16 5 4 15 21 24 29 35 39 50 60 71 81 87
74 71 65 61 59 53 48 45 45 45 37 38 44 44 38 34 35 34 32 30 30 30 34 36 37 45 49 51 52 41 19 9 2 10 20 26 29 33 36 43 54 62 73 82
78 81 75 63 59 60 55 45 49 47 44 38 44 43 42 37 35 34 32 30 27 28 31 32 33 37 44 46 47 47 27 9 4 7 14 20 28 33 34 41 49 61 68 76
88 91 84 70 70 65 58 53 47 45 47 44 38 45 45 39 35 32 30 25 25 26 28 28 31 31 38 43 42 43 43 21 5 8 10 13 18 25 35 46 47 49 59 64
98 97 87 79 74 67 59 58 53 51 50 45 39 46 48 42 36 33 29 25 24 25 25 26 27 28 30 37 40 39 39 38 20 5 10 13 17 21 28 33 44 51 55 60
106 100 89 82 72 75 73 66 63 57 51 53 44 44 49 47 39 35 30 28 26 24 24 25 23 27 24 29 35 37 34 34 32 24 9 6 14 19 25 29 33 49 49 54
104 102 93 87 87 80 79 70 66 54 53 50 56 43 49 49 44 38 33 30 28 25 24 23 21 22 21 22 28 32 33 29 28 27 26 17 10 9 13 25 35 35 42 49
97 92 96 95 94 88 81 75 66 58 57 54 52 49 50 51 47 41 36 32 29 25 24 22 22 18 20 17 19 26 29 29 25 24 21 19 17 10 11 19 32 41 44 46
90 88 96 93 93 94 88 69 69 65 63 58 50 61 48 51 48 46 40 35 32 29 26 23 23 17 18 16 13 16 23 25 26 25 21 17 13 10 8 13 25 39 50 52
85 86 92 87 96 104 75 77 75 69 67 62 58 50 54 51 49 49 44 38 34 32 28 25 24 20 20 19 14 11 15 20 23 25 21 19 16 11 6 7 13 22 38 48
77 83 89 88 92 87 90 79 76 70 67 64 60 52 56 53 49 49 46 41 36 33 32 29 24 22 22 23 20 14 14 17 19 23 23 21 20 20 17 12 10 16 24 31
80 84 86 86 90 90 79 82 79 77 73 66 62 54 53 53 51 47 47 44 38 34 33 30 28 24 23 24 22 21 17 18 19 22 25 20 21 23 21 22 19 17 20 23
79 83 82 84 91 83 85 86 84 77 65 70 64 61 55 57 57 46 49 45 39 36 36 32 30 26 24 24 24 24 24 21 24 25 25 27 23 22 23 23 24 23 21 21
77 82 78 85 90 86 89 88 77 69 75 73 66 62 56 66 51 52 46 45 40 37 37 35 30 29 28 25 23 25 22 20 21 23 25 28 26 24 22 22 27 24 25 26
78 77 74 82 76 80 86 83 80 77 79 73 69 60 61 61 55 54 47 45 41 39 38 35 33 32 33 28 26 25 24 22 23 23 26 27 29 26 24 25 29 27 26 25
76 76 77 83 86 91 92 88 82 79 82 75 69 64 59 63 61 55 50 45 42 40 37 31 31 33 33 32 29 27 26 26 24 24 24 28 29 31 28 29 32 34 29 30
72 79 78 77 86 93 96 90 86 83 84 82 74 72 61 65 63 58 52 47 43 41 35 30 30 31 33 33 32 30 27 24 22 25 23 28 28 29 31 33 36 38 38 38
72 72 77 78 86 92 93 89 89 86 85 87 81 77 67 65 64 61 56 49 44 42 33 29 31 32 34 35 33 29 26 25 24 28 29 26 29 33 36 39 43 45 47 50